sat.trackr.live / text

‹ back to catalog

STARLINK-34025

NORAD 63824 · 2025-092W

PAYLOAD ACTIVE UNKNOWN

§ Identity

Operator
Country
US
Launch date
2025-05-04
Launch site
AFETR
Launch vehicle
Mass (kg)
RCS (m²)

Purposes: comms

External: N2YO · Heavens-Above · Gunter

§ Orbital elements

Epoch: 2026-09-20T23:09:59.734944Z

Period
94.27 min
Inclination
42.9995°
Eccentricity
0.0001599
Mean motion
15.27594678 rev/d
Perigee alt
481.9 km
Apogee alt
484.1 km
Semi-major
6,861.1 km
B*
3.7338e-4
RAAN
149.3678°
Arg perigee
260.7760°
Mean anomaly
99.2911°
Rev number
7,842

§ Raw data

STARLINK-340251 63824U 25092W   26263.96527471  .00010031  00000+0  37338-3 0  99922 63824  42.9995 149.3678 0001599 260.7760  99.2911 15.27594678 78429

JSON: /api/v1/satellites/63824 · /tle

For live sub-satellite position, see the globe view (requires WebGL).

§ Visibility from observer

Set your observer location to see the next 7 days of passes ≥ 10°. The values pass through the URL so the page stays shareable.

No JS? Fill the form by hand. The geolocation button needs JavaScript.